Weather in Presidente Prudente

Brazil     22°08′07″S   51°23′49″W
temp.,
°C
wind,
m/s
gust,
m/s
humid.,
%
clouds,
%
prec.,
mm/h
press.,
hPa
HPBL,
m
15 august, mon
mon1500:00+21ene410450 0.0 1014145
03:00+19ne412470 0.0 1013213
06:00+18nne33490 0.0 101342
09:00+22ne512430 0.0 1014484
12:00+29nne810305 0.0 10131204
15:00+31n68250 0.0 10092439
18:00+26ne34361 0.0 100842
21:00+24ne49345 0.0 1010124
16 august, tue
tue1600:00+22ne4133711 0.0 1010222
03:00+23nne514364 0.0 1010314
06:00+22nne5153827 0.0 1010379
09:00+22nne614394 0.0 1011334
12:00+31n813255 0.0 10101120
15:00+33nnw8132443 0.0 10062432
18:00+27nnw2339100 0.0 100651
21:00+21sw9147398 0.3 1012519
17 august, wed
wed1700:00+19wsw31287100 0.9 1013508
03:00+19ne3688100 2.0 1010201
06:00+19ene3489100 1.0 101098
09:00+21ne4680100 1.6 1012351
12:00+21nne51183100 3.0 1013531
15:00+25n5856100 3.3 1009468
18:00+22e247514 0.1 100973
21:00+21e41076100 0.1 1009223
18 august, thu
thu1800:00+21ene31272100 0.0 1008285
03:00+19ese2488100 0.1 1008106
06:00+19ssw128190 0.1 100836
09:00+19s4891100 0.7 1012327
12:00+19se3387100 1.8 1012260
15:00+18ene2398100 14.9 1009169
18:00+17ssw91592100 22.3 1013717
21:00+16s2794100 25.2 1017340
19 august, fri
fri1900:00+15sw71190100 0.2 1019712
03:00+12sw71288100 0.2 1020665
06:00+9sw71482100 0.0 1022574
09:00+10ssw81274100 0.0 1025604
12:00+15ssw6754100 0.0 1024925
15:00+17ssw564466 0.0 10221300
18:00+14sw48569 0.0 1022250
21:00+11s23702 0.0 102549